カタログに戻る

DELTA 1 DEB

運用中SSO
NORAD 40756·DEBRIS·🇺🇸 United States

打ち上げ Jul 29, 1976 から Vandenberg Space Force Base

Loading…

次のパス (今後24時間)

TLE

最新Source: Space-Track

元期: Sep 13, 2026, 04:31 UTC

1 40756U 76077FZ  26256.18834434 -.00000049  00000-0 -25216-4 0  9990
2 40756 102.5818 241.6706 0077050 220.5992 153.2342 12.25958732967324

AllMySatでDELTA 1 DEBをリアルタイム追跡

Download on the App Store